GSAT-10

Last updated on Wed Dec 17 2025 00:02:50 GMT+0000 (Coordinated Universal Time)

1 38779U 12051B 25350.14501866 -.00000142 00000+0 00000+0 0 9995 2 38779 0.0819 266.0315 0002494 220.6860 93.5450 1.00272843 48263
UTC large
Height (km)
Speed (km/s)
/
Latitude / Longitude
Inclination (degrees)
Orbital Period (minutes)
Azimuth
Elevation
Range (km)
Doppler Factor

Next 0 passes for location: London (51.5072 / 0.1276)

Sorry there are no passes over London.